This is the latest recevied weather packets stored in our database for station/object KC9DRE. If no packets are shown the sender has not sent any weather packets the latest 10 day(s).
| Time | Temp. | Humidity | Pressure | Rain* | Wind** | Luminosity | Snow |
|---|---|---|---|---|---|---|---|
| 1787510240 | 28.89° C | 47% | 1017.3 hPa | 0 mm | - | 274 W/m² | - |
| 1787509936 | 30° C | 48% | 1017.1 hPa | 0 mm | - | 194 W/m² | - |
| 1787509631 | 30° C | 41% | 1017.1 hPa | 0 mm | - | 846 W/m² | - |
| 1787509328 | 29.44° C | 49% | 1017.2 hPa | 0 mm | - | 821 W/m² | - |
| 1787509027 | 29.44° C | 50% | 1017.5 hPa | 0 mm | - | 828 W/m² | - |
| 1787508724 | 28.89° C | 48% | 1017.4 hPa | 0 mm | - | 880 W/m² | - |
| 1787508424 | 29.44° C | 47% | 1017.4 hPa | 0 mm | - | 865 W/m² | - |
| 1787508121 | 29.44° C | 48% | 1017.4 hPa | 0 mm | - | 848 W/m² | - |
| 1787507816 | 28.89° C | 50% | 1017.7 hPa | 0 mm | - | 849 W/m² | - |
| 1787507512 | 28.89° C | 48% | 1017.6 hPa | 0 mm | - | 843 W/m² | - |
| 1787507208 | 28.33° C | 47% | 1017.7 hPa | 0 mm | - | 833 W/m² | - |
| 1787506903 | 28.33° C | 51% | 1017.9 hPa | 0 mm | - | 852 W/m² | - |
| 1787506599 | 27.78° C | 49% | 1017.7 hPa | 0 mm | - | 857 W/m² | - |
| 1787506295 | 27.78° C | 51% | 1017.8 hPa | 0 mm | - | 856 W/m² | - |
| 1787505990 | 27.22° C | 52% | 1017.8 hPa | 0 mm | - | 861 W/m² | - |
| 1787505686 | 27.78° C | 54% | 1018 hPa | 0 mm | - | 313 W/m² | - |
| 1787505386 | 28.89° C | 47% | 1017.9 hPa | 0 mm | - | 180 W/m² | - |
| 1787505082 | 28.33° C | 50% | 1017.9 hPa | 0 mm | - | 957 W/m² | - |
| 1787504781 | 28.33° C | 48% | 1017.9 hPa | 0 mm | - | 159 W/m² | - |
| 1787504478 | 27.78° C | 51% | 1018.2 hPa | 0 mm | - | 864 W/m² | - |
| 1787504173 | 27.22° C | 58% | 1018 hPa | 0 mm | - | 843 W/m² | - |
| 1787503868 | 27.78° C | 57% | 1017.9 hPa | 0 mm | - | 776 W/m² | - |
| 1787503563 | 28.33° C | 55% | 1018 hPa | 0 mm | - | 899 W/m² | - |
| 1787503261 | 28.33° C | 49% | 1018 hPa | 0 mm | - | 892 W/m² | - |
| 1787502956 | 28.33° C | 49% | 1018.2 hPa | 0 mm | - | 901 W/m² | - |
* Rain latest hour (hover to see other rain measurements)
** Current wind speed in m/s (hover to see current wind gust speed)